Miscellaneous Local Product
Issued by NWS North Platte, NE

Home | Current Version | Previous Version | Graphics & Text | Print | Product List | Glossary On
Versions: 1 2 3 4 5 6 7 8 9 10 11 12 13 14 15 16 17 18 19 20 21 22 23 24 25 26 27 28 29 30 31 32 33 34 35 36 37 38 39 40 41 42 43 44 45 46 47 48 49 50
000
AXUS43 KLBF 110410
MISLBF


WESTERN AND NORTH CENTRAL NEBRASKA HOURLY WEATHER ROUNDUP
NATIONAL WEATHER SERVICE NORTH PLATTE NE
1000 PM CST SUN DEC 10 2017

NOTE: "FAIR" INDICATES FEW OR NO CLOUDS BELOW 12,000 FEET WITH NO
SIGNIFICANT WEATHER AND/OR OBSTRUCTIONS TO VISIBILITY.

NOTE: STATIONS NOT REPORTING VARIABLES SUCH AS SKY/WEATHER OR
PRESSURE ARE PROVIDED BY RAWS AND APRS NETWORKS AND ARE NOT UNDER
NATIONAL WEATHER SERVICE QUALITY CONTROL.

...OBSERVATIONS IN AND NEAR THE EASTERN PANHANDLE OF NEBRASKA...

CITY           SKY/WX    TMP DP  RH WIND       PRES   REMARKS
PINE RIDGE     PTCLDY    44  19  36 W5        30.18S
GORDON         FAIR      42  18  38 W15       30.16F
CHADRON        MOCLDY    45  14  28 W8        30.19F
ALLIANCE       CLOUDY    26  10  50 W13       30.21F WCI  15
SIDNEY         CLOUDY    39   7  26 W14       30.27S WCI  31
CRESCENT LAKE    N/A     40  10  28 W9G17       N/A  WCI  34
$$

...OBSERVATIONS IN NORTHERN NEBRASKA AND FAR SOUTHERN SOUTH DAKOTA...

CITY           SKY/WX    TMP DP  RH WIND       PRES   REMARKS
WINNER         FAIR      42  19  39 W10       30.03F
VALENTINE      CLEAR     38  18  44 W10       30.10S WCI  31
THEDFORD       CLOUDY    37  12  36 W8        30.14F WCI  30
AINSWORTH      CLOUDY    41  18  40 W13       30.08F
O`NEILL        CLOUDY    41  20  43 W8        30.04F
ORD            CLOUDY    36  13  38 NW6       30.08F WCI  31
BROKEN BOW     CLOUDY    37  12  35 W8        30.11F WCI  31
VALENTINE NWR    N/A     41  13  32 W6G15       N/A
HALSEY           N/A     43   8  23 W7          N/A
BUTTE            N/A     40  22  47 W6          N/A
CHAMBERS         N/A     48  17  29 W3          N/A
EWING            N/A     42  21  42 W3          N/A
$$

...OBSERVATIONS IN SOUTHWEST NEBRASKA AND FAR NORTHEAST COLORADO...

CITY           SKY/WX    TMP DP  RH WIND       PRES   REMARKS
WRAY           FAIR      30   3  31 W8        30.27S WCI  23
HOLYOKE        FAIR      48   5  17 NW18G24   30.25S
IMPERIAL       CLEAR     37   4  25 W10       30.22F WCI  30
OGALLALA       CLEAR     47   9  21 NW15      30.20F
NORTH PLATTE   CLOUDY    29  15  56 NW7       30.17F WCI  22
MCCOOK         CLOUDY    38   9  30 W7        30.19F WCI  33
LEXINGTON      CLOUDY    32  14  47 W8        30.14F WCI  25
STAPLETON        N/A     39  11  32 CALM        N/A
GOTHENBURG       N/A     39  11  32 W5          N/A
CALLAWAY         N/A     40  12  31 NW12        N/A  WCI  33
$$

...OBSERVATIONS IN CENTRAL LINCOLN COUNTY AREA...

CITY           SKY/WX    TMP DP  RH WIND       PRES   REMARKS
N.P. AIRPORT   CLOUDY    29  15  56 NW7       30.17F WCI  22
N.P. DOWNTOWN    N/A     35  15  44 CALM        N/A
N.P. SOUTHEAST   N/A     39  14  36 NW3         N/A
N.P. HILLCREST   N/A     37  11  34 W3          N/A
$$

...SOME OBSERVATIONS FROM AROUND THE REGION...

CITY           SKY/WX    TMP DP  RH WIND       PRES   REMARKS
DENVER         CLOUDY    40  -5  14 SW13      30.31F WCI  32
GRAND JUNCTION CLOUDY    22   2  42 CALM      30.51S
LARAMIE        CLOUDY    21   7  54 SE5       30.39F WCI  15
CHEYENNE       CLOUDY    38   3  23 W8        30.32F WCI  32
CASPER         CLOUDY    35  16  45 SW14      30.36R WCI  26
BISMARCK       CLOUDY    44  26  49 W14       29.93S
RAPID CITY     CLOUDY    43   8  23 W9        30.12S
PIERRE         CLOUDY    44  22  41 W12       30.00F
SIOUX FALLS    CLOUDY    35  29  78 SW3       29.98F
OMAHA          CLOUDY    31  24  75 SE6       30.06F WCI  25
GRAND ISLAND   CLEAR     39  15  37 W10       30.10F WCI  32
SCOTTSBLUFF    CLOUDY    36   9  32 W13       30.26F WCI  27
KANSAS CITY    CLEAR     40  23  50 S5        30.12F
HILL CITY      CLEAR     40  12  32 W12       30.20S WCI  33
WICHITA        CLEAR     38  19  46 W7        30.19F WCI  33
DODGE CITY     CLOUDY    46   9  22 W12       30.26F
OKLAHOMA CITY  CLEAR     40  16  37 SW3       30.26F
DALLAS         CLEAR     52  22  30 SW8       30.27F
AMARILLO       CLOUDY    43  10  26 SW7       30.35F
$$




USA.gov is the U.S. government's official web portal to all federal, state and local government web resources and services.